Fairweather Ground 105NM West of Juneau, AK (46083)

Conditions for Wednesday

Daily
Weekly
Monthly
Marine Data Graph

Marine & Boating Location Search

Enter a coastal zip code for marine weather.

General Information

Location: 58.3 North -137.997 West
Buoy Type: 3-meter foam buoy
Buoy Hull: 6N31
Payload: AMPS payload
Owned by: NDBC
Windspeed: Measured by obtained from anemometer
Sea Surface: Measured by Intake

Weather and Wave Data

Time Temp Humidity Wind Dominant Wave Wind Wave Wave Swell Pressure
  Air
(°F)
Water
(°F)
  Dir Speed
(kts)
Speed
(mph)
Period
(sec)
Height
(ft)
Range
(ft)
Period
(sec)
Height
(ft)
Range
(ft)
Period
(sec)
Height
(ft)
Range
(ft)
Atmo.
(in)
Tend.
(in)
20:50 40 45 43 East 1.9 2.2 6 5.58 exactly 5.6 4 1.64 0.82 - 2.46 6 4.92 4.10 - 5.74 29.42 -0.01
21:50 40 45 55 SSE 5.8 6.7 6 5.58 exactly 5.6 4 1.64 0.82 - 2.46 6 4.92 4.10 - 5.74 29.42 -0.01
22:50 39 45 55 SSE 13.6 15.7 6 5.58 exactly 5.6 6 4.92 4.10 - 5.74 10 3.28 2.46 - 4.10 29.43 -
23:50 40 45 48 SE 15.6 17.9 6 5.25 exactly 5.2 6 4.92 4.10 - 5.74 9 1.64 0.82 - 2.46 29.43 +0.01
00:50 39 45 51 SE 17.5 20.1 6 5.91 exactly 5.9 6 4.92 4.10 - 5.74 8 1.64 0.82 - 2.46 29.44 +0.02
01:50 38 45 47 SE 23.3 26.8 6 5.91 exactly 5.9 6 6.56 5.74 - 7.38 9 1.64 0.82 - 2.46 29.45 +0.02
02:50 38 45 44 ESE 21.4 24.6 6 6.56 exactly 6.6 6 6.56 5.74 - 7.38 11 1.64 0.82 - 2.46 29.45 +0.02
03:50 40 45 38 ESE 25.3 29.1 6 5.58 exactly 5.6 6 4.92 4.10 - 5.74 8 1.64 0.82 - 2.46 29.46 +0.02
04:50 39 45 41 ESE 21.4 24.6 6 5.91 exactly 5.9 6 4.92 4.10 - 5.74 11 1.64 0.82 - 2.46 29.48 +0.03
05:50 38 45 40 ESE 19.4 22.4 6 5.91 exactly 5.9 6 6.56 5.74 - 7.38 - - - 29.51 +0.05
06:50 38 45 41 SE 21.4 24.6 6 5.58 exactly 5.6 6 4.92 4.10 - 5.74 11 1.64 0.82 - 2.46 29.52 +0.06
07:50 38 45 42 SE 23.3 26.8 6 5.91 exactly 5.9 6 6.56 5.74 - 7.38 10 1.64 0.82 - 2.46 29.54 +0.06
08:50 37 45 44 SE 23.3 26.8 6 6.56 exactly 6.6 6 6.56 5.74 - 7.38 12 1.64 0.82 - 2.46 29.56 +0.05
09:50 37 45 42 ESE 23.3 26.8 6 6.56 exactly 6.6 6 6.56 5.74 - 7.38 11 1.64 0.82 - 2.46 29.58 +0.06
10:50 37 45 47 SE 23.3 26.8 6 6.56 exactly 6.6 6 6.56 5.74 - 7.38 11 3.28 2.46 - 4.10 29.61 +0.07
11:50 37 45 47 SE 25.3 29.1 6 7.22 exactly 7.2 6 6.56 5.74 - 7.38 11 1.64 0.82 - 2.46 29.62 +0.06
12:50 36 45 54 SE 25.3 29.1 6 6.89 exactly 6.9 6 6.56 5.74 - 7.38 11 1.64 0.82 - 2.46 29.64 +0.05
13:50 36 45 60 SE 23.3 26.8 6 7.22 exactly 7.2 6 6.56 5.74 - 7.38 9 1.64 0.82 - 2.46 29.66 +0.04
14:50 36 45 64 SE 25.3 29.1 6 7.22 exactly 7.2 6 6.56 5.74 - 7.38 10 1.64 0.82 - 2.46 29.68 +0.05
15:50 35 45 68 SE 27.2 31.3 6 7.22 exactly 7.2 6 6.56 5.74 - 7.38 9 1.64 0.82 - 2.46 29.68 +0.05
16:50 36 45 67 ESE 25.3 29.1 6 6.89 exactly 6.9 6 6.56 5.74 - 7.38 - - - 29.70 +0.04
17:50 36 45 66 ESE 27.2 31.3 6 7.87 exactly 7.9 6 8.20 7.38 - 9.02 - - - 29.70 +0.03
18:50 37 45 67 ESE 27.2 31.3 6 8.20 exactly 8.2 6 8.20 7.38 - 9.02 - - - 29.70 +0.02
19:50 37 45 67 ESE 29.2 33.6 6 9.19 exactly 9.2 6 9.84 9.02 - 10.66 11 1.64 0.82 - 2.46 29.71 +0.01
20:50 38 45 64 ESE 29.2 33.6 6 8.53 exactly 8.5 6 8.20 7.38 - 9.02 - - - 29.73 +0.03
21:50 38 45 64 ESE 31.1 35.8 6 8.86 exactly 8.9 6 8.20 7.38 - 9.02 - - - 29.73 +0.03
22:50 38 45 66 ESE 33.1 38.0 7 9.84 exactly 9.8 7 9.84 9.02 - 10.66 - - - 29.73 +0.02
23:50 38 45 67 ESE 33.1 38.0 7 10.17 exactly 10.2 7 9.84 9.02 - 10.66 - - - 29.74 -
00:50 38 45 66 ESE 33.1 38.0 7 9.84 exactly 9.8 7 9.84 9.02 - 10.66 - - - 29.74 +0.01
01:50 39 45 63 ESE 33.1 38.0 7 10.83 exactly 10.8 7 11.48 10.66 - 12.30 - - - 29.73 -
02:50 39 45 61 ESE 35.0 40.3 7 10.50 exactly 10.5 7 9.84 9.02 - 10.66 - - - 29.70 -0.04
03:50 40 45 61 ESE 33.1 38.0 7 10.50 exactly 10.5 7 9.84 9.02 - 10.66 - - - 29.68 -0.07

Detailed Wave Spectra

Time Water Depth Wave Height Spectral Peak Period Average Wave Period Sampling Interval Wave Record
20:00 463 ft 5.28 ft 5.9 sec 4.5 sec 0.6 sec 2400 sec
21:00 463 ft 5.64 ft 6.3 sec 4.9 sec 0.6 sec 2400 sec
22:00 463 ft 5.54 ft 5.9 sec 5.0 sec 0.6 sec 2400 sec
23:00 463 ft 5.61 ft 5.6 sec 5.0 sec 0.6 sec 2400 sec
00:00 463 ft 5.35 ft 5.6 sec 4.6 sec 0.6 sec 2400 sec
01:00 463 ft 5.97 ft 6.3 sec 4.7 sec 0.6 sec 2400 sec
02:00 463 ft 6.00 ft 5.9 sec 4.6 sec 0.6 sec 2400 sec
03:00 463 ft 6.46 ft 5.6 sec 4.7 sec 0.6 sec 2400 sec
04:00 463 ft 5.68 ft 5.6 sec 4.6 sec 0.6 sec 2400 sec
05:00 463 ft 5.84 ft 5.9 sec 4.6 sec 0.6 sec 2400 sec
06:00 463 ft 5.81 ft 5.6 sec 4.6 sec 0.6 sec 2400 sec
07:00 463 ft 5.51 ft 5.6 sec 4.5 sec 0.6 sec 2400 sec
08:00 463 ft 6.00 ft 5.9 sec 4.8 sec 0.6 sec 2400 sec
09:00 463 ft 6.56 ft 5.9 sec 4.9 sec 0.6 sec 2400 sec
10:00 463 ft 6.43 ft 5.9 sec 4.7 sec 0.6 sec 2400 sec
11:00 463 ft 6.66 ft 5.9 sec 4.9 sec 0.6 sec 2400 sec
12:00 463 ft 7.19 ft 5.9 sec 4.8 sec 0.6 sec 2400 sec
13:00 463 ft 7.05 ft 5.6 sec 4.9 sec 0.6 sec 2400 sec
14:00 463 ft 7.32 ft 5.6 sec 5.0 sec 0.6 sec 2400 sec
15:00 463 ft 7.28 ft 5.6 sec 4.8 sec 0.6 sec 2400 sec
16:00 463 ft 7.05 ft 5.6 sec 4.8 sec 0.6 sec 2400 sec
17:00 463 ft 7.02 ft 5.9 sec 4.7 sec 0.6 sec 2400 sec
18:00 463 ft 7.78 ft 5.9 sec 4.8 sec 0.6 sec 2400 sec
19:00 463 ft 8.27 ft 5.9 sec 5.1 sec 0.6 sec 2400 sec
20:00 463 ft 9.22 ft 6.3 sec 5.2 sec 0.6 sec 2400 sec
21:00 463 ft 8.60 ft 6.3 sec 5.1 sec 0.6 sec 2400 sec
22:00 463 ft 8.86 ft 6.3 sec 5.1 sec 0.6 sec 2400 sec
23:00 463 ft 9.84 ft 7.1 sec 5.3 sec 0.6 sec 2400 sec
00:00 463 ft 10.14 ft 7.1 sec 5.5 sec 0.6 sec 2400 sec
01:00 463 ft 9.74 ft 7.1 sec 5.4 sec 0.6 sec 2400 sec
02:00 463 ft 10.96 ft 7.1 sec 5.6 sec 0.6 sec 2400 sec
03:00 463 ft 10.53 ft 7.1 sec 5.6 sec 0.6 sec 2400 sec